Content
SEND FEEDBACK

Daily
Averages
Monthly
Summary
United States of America

MAURICEVILLE, TEXAS


Home > North America > United States > Texas
Elevation: 20 feet     Latitude: 30 14N     Longitude: 093 44W

WEATHER
 
SELECT A DAY
Number of Records: 119,056;   Date Range: 8/25/05 - 12/19/14
 
SHARE

PRINT THIS DATA

[ ← Previous Day ]
WEATHER ALMANAC - DECEMBER 7, 2013
[ Next Day → ]
[ °C ]   °F
Weather ElementAverageHighLow
Temperature37.3 °F40.1 °F (12:35 am)35.2 °F (8:35 am)
Dewpoint33.1 °F36.1 °F (12:55 am)32 °F (8:15 am)
Humidity85 %90 % (6:15 am)81 % (12:35 pm)
Barometer30.33 in30.39 in (9:15 am)30.29 in (2:55 pm)
Wind Speed7.7 mph13.8 mph (3:35 am)
Wind Gust19.6 mph (3:35 am)
Weather ElementAverage
Visibility10 mi
Wind DirectionWSW (243.8 °)

Weather ElementTotal
Precipitation---
Heating Degree Days27.4 (Base 65)
Averaged from 71 records on December 7, 2013
WEATHER CONDITIONS BREAKOUT
WIND DIRECTION BREAKOUT
WEATHER BY HOUR - DECEMBER 7, 2013
[ °C ]   °F
Local TimeTemperatureDewpointHumidityBarometerVisibilityWind DirectionWind SpeedGust SpeedPrecipitationEventsConditions
12:35 AM40.1 °F35.8 °F85 %30.33 in10.0 miNorth (360°)10.4 mph16.1 mphOvercast
12:55 AM40.1 °F36.1 °F86 %30.33 in10.0 miNorth (350°)11.5 mph17.3 mphOvercast
1:15 AM39.9 °F36.0 °F86 %30.33 in10.0 miNorth (350°)10.4 mph18.4 mphOvercast
1:35 AM39.7 °F35.6 °F85 %30.33 in10.0 miNorth (350°)9.2 mph17.3 mphOvercast
1:55 AM39.6 °F34.9 °F83 %30.33 in10.0 miNorth (360°)12.7 mph17.3 mphOvercast
2:15 AM39.4 °F34.7 °F83 %30.32 in10.0 miNorth (10°)9.2 mph16.1 mphOvercast
2:35 AM39.2 °F34.3 °F83 %30.32 in10.0 miNorth (350°)9.2 mph17.3 mphOvercast
2:55 AM38.5 °F33.8 °F83 %30.33 in10.0 miNNW (340°)11.5 mph18.4 mphOvercast
3:15 AM38.3 °F33.8 °F84 %30.33 in10.0 miNorth (350°)11.5 mph18.4 mphOvercast
3:35 AM37.8 °F33.3 °F84 %30.34 in10.0 miNorth (360°)13.8 mph19.6 mphOvercast
3:55 AM37.4 °F33.1 °F84 %30.33 in10.0 miNorth (360°)10.4 mph18.4 mphOvercast
4:15 AM37.2 °F33.1 °F85 %30.34 in10.0 miNorth (350°)11.5 mphOvercast
4:35 AM37.0 °F32.9 °F85 %30.34 in10.0 miNorth (350°)11.5 mph18.4 mphOvercast
4:55 AM36.9 °F32.9 °F86 %30.34 in10.0 miNorth (360°)8.1 mph19.6 mphOvercast
5:15 AM36.9 °F33.1 °F86 %30.34 in10.0 miNorth (350°)8.1 mph16.1 mphOvercast
5:35 AM36.7 °F32.9 °F86 %30.34 in10.0 miNorth (350°)9.2 mph16.1 mphOvercast
5:55 AM36.5 °F33.1 °F87 %30.34 in10.0 miNorth (350°)8.1 mph17.3 mphOvercast
6:15 AM35.8 °F33.1 °F90 %30.34 in10.0 miNorth (350°)12.7 mph19.6 mphOvercast
6:35 AM36.0 °F32.5 °F87 %30.36 in10.0 miNorth (360°)12.7 mph18.4 mphOvercast
6:55 AM35.8 °F32.7 °F89 %30.35 in10.0 miNorth (350°)9.2 mph17.3 mphOvercast
7:15 AM35.8 °F32.2 °F87 %30.37 in10.0 miNorth (350°)8.1 mph16.1 mphOvercast
7:35 AM35.8 °F32.5 °F88 %30.37 in10.0 miNNW (340°)10.4 mphOvercast
7:55 AM35.6 °F32.2 °F87 %30.37 in10.0 miNorth (360°)10.4 mphOvercast
8:15 AM35.6 °F32.0 °F87 %30.38 in10.0 miNorth (10°)12.7 mph16.1 mphOvercast
8:35 AM35.2 °F32.0 °F88 %30.38 in10.0 miNorth (350°)8.1 mph18.4 mphOvercast
8:55 AM35.2 °F32.0 °F88 %30.38 in10.0 miNorth (360°)6.9 mph17.3 mphOvercast
9:15 AM35.2 °F32.0 °F88 %30.39 in10.0 miNorth (350°)10.4 mph17.3 mphOvercast
9:35 AM35.6 °F32.0 °F87 %30.39 in10.0 miNorth (360°)9.2 mph18.4 mphOvercast
9:55 AM35.6 °F32.0 °F87 %30.39 in10.0 miNorth (350°)11.5 mph16.1 mphOvercast
10:15 AM35.8 °F32.0 °F86 %30.39 in10.0 miNorth (360°)6.9 mph16.1 mphOvercast
10:35 AM36.0 °F32.0 °F86 %30.39 in10.0 miNorth (350°)11.5 mphOvercast
10:55 AM36.5 °F32.4 °F85 %30.39 in10.0 miNorth (360°)11.5 mphOvercast
11:15 AM36.7 °F32.5 °F85 %30.38 in10.0 miNorth (10°)8.1 mphOvercast
11:35 AM36.5 °F32.4 °F85 %30.38 in10.0 miNorth (350°)10.4 mphOvercast
11:55 AM36.9 °F32.5 °F84 %30.37 in10.0 miNNE (20°)6.9 mph10.4 mphOvercast
12:15 PM37.2 °F32.4 °F83 %30.35 in10.0 miNorth (360°)8.1 mphOvercast
12:35 PM37.8 °F32.5 °F81 %30.34 in10.0 miNNE (20°)11.5 mphOvercast
12:55 PM37.9 °F32.5 °F81 %30.33 in10.0 miNNE (20°)8.1 mphOvercast
1:15 PM37.9 °F32.9 °F82 %30.32 in10.0 miNNW (340°)9.2 mphOvercast
1:35 PM37.6 °F32.9 °F83 %30.31 in10.0 miNorth (360°)6.9 mphOvercast
1:55 PM37.4 °F32.9 °F84 %30.31 in10.0 miNorth (350°)9.2 mphOvercast
2:15 PM37.4 °F32.9 °F84 %30.30 in10.0 miNNW (340°)6.9 mphOvercast
2:35 PM37.6 °F32.9 °F83 %30.30 in10.0 miNorth (360°)5.8 mphOvercast
2:55 PM37.8 °F32.9 °F83 %30.29 in10.0 miNorth (10°)5.8 mphOvercast
3:15 PM37.8 °F32.9 °F83 %30.29 in10.0 miNNW (340°)5.8 mphOvercast
3:35 PM37.8 °F32.9 °F83 %30.29 in10.0 miNorth (350°)5.8 mphOvercast
3:55 PM37.9 °F33.1 °F83 %30.29 in10.0 miNNW (340°)5.8 mphOvercast
4:15 PM37.9 °F32.9 °F82 %30.29 in10.0 miNorth (10°)6.9 mphOvercast
4:35 PM37.8 °F32.9 °F83 %30.29 in10.0 miNorth (360°)3.5 mphOvercast
4:55 PM37.6 °F32.9 °F83 %30.30 in10.0 miNNW (330°)5.8 mphOvercast
5:15 PM37.4 °F32.9 °F84 %30.30 in10.0 miNNW (340°)5.8 mphOvercast
5:35 PM37.4 °F32.9 °F84 %30.30 in10.0 miNorth (350°)5.8 mphOvercast
5:55 PM37.4 °F33.1 °F84 %30.30 in10.0 miNorth (10°)3.5 mphOvercast
6:15 PM37.6 °F33.1 °F84 %30.30 in10.0 miNNE (20°)5.8 mphOvercast
6:35 PM37.6 °F32.9 °F83 %30.31 in10.0 miNNE (20°)3.5 mphOvercast
6:55 PM37.8 °F33.4 °F84 %30.31 in10.0 miCalmOvercast
7:15 PM37.6 °F33.3 °F84 %30.31 in10.0 miNorth (10°)4.6 mphOvercast
7:35 PM37.6 °F33.1 °F84 %30.31 in10.0 miNNE (30°)4.6 mphOvercast
7:55 PM37.6 °F33.3 °F84 %30.31 in10.0 miNE (50°)4.6 mphOvercast
8:15 PM37.6 °F33.4 °F85 %30.32 in10.0 miNNE (30°)4.6 mphOvercast
8:35 PM37.4 °F33.3 °F85 %30.32 in10.0 miNNE (30°)6.9 mphOvercast
8:55 PM37.4 °F33.3 °F85 %30.31 in10.0 miNorth (10°)3.5 mphOvercast
9:15 PM37.4 °F33.3 °F85 %30.31 in10.0 miNorth (10°)4.6 mphOvercast
9:35 PM37.4 °F33.6 °F86 %30.31 in10.0 miNNE (30°)5.8 mphOvercast
9:55 PM37.2 °F33.4 °F86 %30.31 in10.0 miNE (50°)4.6 mphOvercast
10:15 PM37.4 °F33.8 °F87 %30.31 in10.0 miNorth (10°)3.5 mphOvercast
10:35 PM37.4 °F33.4 °F86 %30.31 in10.0 miNorth (360°)3.5 mphOvercast
10:55 PM37.4 °F33.8 °F87 %30.31 in10.0 miCalmOvercast
11:15 PM37.0 °F33.6 °F87 %30.30 in10.0 miNorth (350°)4.6 mphOvercast
11:35 PM37.4 °F33.8 °F87 %30.29 in10.0 miNorth (360°)4.6 mphOvercast
11:55 PM37.0 °F33.4 °F87 %30.29 in10.0 miNorth (360°)3.5 mphOvercast
Hourly data recorded from KORG, located miles away from Mauriceville, Texas







STORIES FROM OUR PARTNERS